BOCF13 EGNX-KMIA

Flight info

Callsign BOCF13
Flight time N/A
Altitude 30000
Route TNT Q4 WAL/N0472F280 L10 PENIL M144 BAGSO DCT RINUS DCT MALOT/M082F290 NATD RIKAL/N0476F300 N572A TOPPS/N0471F320 DCT HTO DCT BEADS DCT SWL DCT SKARP AR22 HOAGG BNFSH3
Aircraft B77L/H-SDE1E2E3FGHIJ2J3J4J5M1RWXY/LB1D1

Departure

Time 2026-05-04 12:24
Airport East Midlands Airport (EGNX)

Arrival

Time N/A
Airport Miami International Airport (KMIA)
Time Latitude Longitude Altitude Speed Heading
2026-05-04 12:21 52.82932 -1.34942 312 ft 0 kts
2026-05-04 12:22 52.82933 -1.34941 310 ft 1 kts
2026-05-04 12:23 52.82989 -1.34938 309 ft 12 kts
2026-05-04 12:23 52.83059 -1.34891 312 ft 11 kts 61°
2026-05-04 12:23 52.83065 -1.34825 309 ft 2 kts 87°
2026-05-04 12:23 52.83066 -1.34798 308 ft 7 kts 87°
2026-05-04 12:24 52.83070 -1.34469 305 ft 64 kts 88°
2026-05-04 12:24 52.83092 -1.33271 314 ft 143 kts 88°
2026-05-04 12:24 52.83135 -1.31253 390 ft 197 kts 87°
2026-05-04 12:24 52.83127 -1.29031 1214 ft 192 kts 92°
2026-05-04 12:25 52.82993 -1.26809 1968 ft 198 kts 94°
2026-05-04 12:25 52.83122 -1.24500 2211 ft 210 kts 59°
2026-05-04 12:25 52.84200 -1.22847 2592 ft 221 kts 24°
2026-05-04 12:25 52.85754 -1.22593 3168 ft 235 kts 353°
2026-05-04 12:26 52.87219 -1.23972 3680 ft 259 kts 317°
2026-05-04 12:26 52.88273 -1.26453 4197 ft 267 kts 309°
2026-05-04 12:26 52.89318 -1.29026 4783 ft 271 kts 309°
2026-05-04 12:26 52.90396 -1.31597 5382 ft 274 kts 309°
2026-05-04 12:27 52.91510 -1.34227 5877 ft 284 kts 309°
2026-05-04 12:27 52.92665 -1.36936 6318 ft 290 kts 309°
2026-05-04 12:27 52.93834 -1.39669 6306 ft 297 kts 309°
2026-05-04 12:27 52.95027 -1.42449 6320 ft 295 kts 309°
2026-05-04 12:28 52.96224 -1.45253 6309 ft 293 kts 309°
2026-05-04 12:28 52.97389 -1.47966 6310 ft 291 kts 309°
2026-05-04 12:28 52.98563 -1.50714 6322 ft 292 kts 308°
2026-05-04 12:28 52.99728 -1.53488 6322 ft 294 kts 308°
2026-05-04 12:29 53.00897 -1.56277 6304 ft 294 kts 308°
2026-05-04 12:29 53.02063 -1.59059 6309 ft 294 kts 308°
2026-05-04 12:29 53.03234 -1.61851 6308 ft 294 kts 308°
2026-05-04 12:29 53.04408 -1.64645 6300 ft 294 kts 308°
2026-05-04 12:30 53.05526 -1.67473 6286 ft 293 kts 298°
2026-05-04 12:30 53.06171 -1.70698 6663 ft 295 kts 285°
2026-05-04 12:30 53.06675 -1.74016 7286 ft 300 kts 287°
2026-05-04 12:30 53.07217 -1.77392 7930 ft 303 kts 287°
2026-05-04 12:31 53.07771 -1.80766 8632 ft 304 kts 287°
2026-05-04 12:31 53.08334 -1.84183 9213 ft 308 kts 287°
2026-05-04 12:31 53.08909 -1.87635 9822 ft 311 kts 287°
2026-05-04 12:31 53.09492 -1.91111 10453 ft 313 kts 288°
2026-05-04 12:32 53.10087 -1.94654 10825 ft 327 kts 288°
2026-05-04 12:32 53.11389 -2.02390 11157 ft 367 kts 287°
2026-05-04 12:32 53.12092 -2.06591 11351 ft 385 kts 287°
2026-05-04 12:33 53.12819 -2.10945 11847 ft 395 kts 287°
2026-05-04 12:33 53.13557 -2.15397 12437 ft 402 kts 287°
2026-05-04 12:33 53.14374 -2.19862 13083 ft 405 kts 292°
2026-05-04 12:33 53.15492 -2.24173 13776 ft 405 kts 300°
2026-05-04 12:34 53.16773 -2.28378 14401 ft 409 kts 300°
2026-05-04 12:34 53.18070 -2.32635 15000 ft 414 kts 300°
2026-05-04 12:34 53.19370 -2.36938 15590 ft 418 kts 300°
2026-05-04 12:34 53.20676 -2.41298 16167 ft 422 kts 300°
2026-05-04 12:35 53.21986 -2.45698 16753 ft 426 kts 300°
2026-05-04 12:35 53.23308 -2.50163 17306 ft 430 kts 300°
2026-05-04 12:35 53.24636 -2.54657 17856 ft 434 kts 300°
2026-05-04 12:35 53.25975 -2.59202 18379 ft 438 kts 300°
2026-05-04 12:36 53.27319 -2.63769 18897 ft 441 kts 300°
2026-05-04 12:36 53.28663 -2.68344 19382 ft 445 kts 300°
2026-05-04 12:36 53.30023 -2.73008 19902 ft 449 kts 299°
2026-05-04 12:36 53.31232 -2.77857 20379 ft 454 kts 294°
2026-05-04 12:37 53.32345 -2.82824 20845 ft 458 kts 294°
2026-05-04 12:37 53.33462 -2.87842 21274 ft 463 kts 294°
2026-05-04 12:37 53.34594 -2.92911 21723 ft 466 kts 294°
2026-05-04 12:37 53.35741 -2.98012 22168 ft 470 kts 295°
2026-05-04 12:38 53.36897 -3.03138 22626 ft 473 kts 295°
2026-05-04 12:38 53.38068 -3.08300 23072 ft 475 kts 296°
2026-05-04 12:38 53.39441 -3.13321 23483 ft 475 kts 302°
2026-05-04 12:38 53.41094 -3.18091 23899 ft 473 kts 309°
2026-05-04 12:39 53.43006 -3.22587 24320 ft 473 kts 311°
2026-05-04 12:39 53.44951 -3.27053 24744 ft 476 kts 311°
2026-05-04 12:39 53.46901 -3.31556 25150 ft 479 kts 311°
2026-05-04 12:39 53.48856 -3.36118 25551 ft 481 kts 311°
2026-05-04 12:40 53.50801 -3.40699 25961 ft 483 kts 311°
2026-05-04 12:40 53.52743 -3.45300 26357 ft 485 kts 311°
2026-05-04 12:40 53.54699 -3.49944 26725 ft 487 kts 311°
2026-05-04 12:40 53.56616 -3.54502 27088 ft 489 kts 311°
2026-05-04 12:41 53.58576 -3.59187 27460 ft 491 kts 309°
2026-05-04 12:41 53.60286 -3.64220 27814 ft 501 kts 299°
2026-05-04 12:41 53.61480 -3.69764 28172 ft 509 kts 289°
2026-05-04 12:41 53.62127 -3.75509 29275 ft 489 kts 276°
2026-05-04 12:42 53.62341 -3.81186 29913 ft 483 kts 276°
2026-05-04 12:42 53.62497 -3.86841 30326 ft 482 kts 277°
2026-05-04 12:42 53.62701 -3.92490 30440 ft 486 kts 278°
2026-05-04 12:43 53.63183 -4.03989 30432 ft 498 kts 278°
2026-05-04 12:43 53.63636 -4.15738 30424 ft 507 kts 277°
2026-05-04 12:44 53.64068 -4.27502 30321 ft 499 kts 276°
2026-05-04 12:44 53.64485 -4.39045 30182 ft 494 kts 276°
2026-05-04 12:45 53.64826 -4.48756 30091 ft 499 kts 276°
2026-05-04 12:45 53.65227 -4.60493 30073 ft 502 kts 276°
2026-05-04 12:46 53.65622 -4.72299 30086 ft 508 kts 276°
2026-05-04 12:46 53.66009 -4.84205 30078 ft 511 kts 275°
2026-05-04 12:47 53.66401 -4.96167 30073 ft 512 kts 276°
2026-05-04 12:47 53.66794 -5.08147 30075 ft 512 kts 275°
2026-05-04 12:48 53.67168 -5.20181 30092 ft 517 kts 275°
2026-05-04 12:48 53.67515 -5.32371 30087 ft 523 kts 275°
2026-05-04 12:49 53.67856 -5.44641 30084 ft 525 kts 275°
2026-05-04 12:49 53.68016 -5.56956 30086 ft 526 kts 272°
2026-05-04 12:50 53.67887 -5.69279 30084 ft 525 kts 271°
2026-05-04 12:50 53.67725 -5.81584 30085 ft 524 kts 271°
2026-05-04 12:51 53.67578 -5.93876 30083 ft 523 kts 271°
2026-05-04 12:51 53.67434 -6.06125 30081 ft 522 kts 271°
2026-05-04 12:52 53.67278 -6.18381 30081 ft 522 kts 271°
2026-05-04 12:52 53.67111 -6.30615 30087 ft 522 kts 271°
2026-05-04 12:53 53.66929 -6.42871 30078 ft 523 kts 271°
2026-05-04 12:53 53.66734 -6.55057 30077 ft 523 kts 271°
2026-05-04 12:54 53.66527 -6.67336 30078 ft 524 kts 271°
2026-05-04 12:54 53.66309 -6.79624 30086 ft 525 kts 271°
2026-05-04 12:55 53.66075 -6.91930 30083 ft 525 kts 271°
2026-05-04 12:55 53.65827 -7.04247 30084 ft 526 kts 270°
2026-05-04 12:56 53.65569 -7.16578 30085 ft 526 kts 270°
2026-05-04 12:56 53.65299 -7.28887 30094 ft 525 kts 270°
2026-05-04 12:57 53.65015 -7.41167 30090 ft 524 kts 270°
2026-05-04 12:57 53.64720 -7.53412 30100 ft 522 kts 270°
2026-05-04 12:58 53.64415 -7.65629 30103 ft 520 kts 270°
2026-05-04 12:58 53.63896 -7.77781 30099 ft 520 kts 267°
2026-05-04 12:59 53.63123 -7.89881 30113 ft 519 kts 266°
2026-05-04 12:59 53.62348 -8.01954 30096 ft 518 kts 266°
2026-05-04 13:00 53.61610 -8.14000 30103 ft 517 kts 267°
2026-05-04 13:00 53.60882 -8.26039 30112 ft 517 kts 267°
2026-05-04 13:01 53.60150 -8.38008 30107 ft 518 kts 266°
2026-05-04 13:01 53.59391 -8.50149 30099 ft 519 kts 266°
2026-05-04 13:02 53.58621 -8.62247 30110 ft 520 kts 266°
2026-05-04 13:02 53.57842 -8.74277 30122 ft 521 kts 266°
2026-05-04 13:03 53.57043 -8.86413 30111 ft 522 kts 266°
2026-05-04 13:03 53.56230 -8.98570 30102 ft 523 kts 266°
2026-05-04 13:04 53.55405 -9.10728 30099 ft 523 kts 266°
2026-05-04 13:04 53.54568 -9.22871 30103 ft 523 kts 266°
2026-05-04 13:05 53.53719 -9.35005 30114 ft 521 kts 266°
2026-05-04 13:05 53.52860 -9.47085 30092 ft 519 kts 265°
2026-05-04 13:06 53.51992 -9.59122 30111 ft 517 kts 265°
2026-05-04 13:06 53.51121 -9.71066 30096 ft 515 kts 265°
2026-05-04 13:07 53.50240 -9.82987 30110 ft 512 kts 265°
2026-05-04 13:07 53.49350 -9.94846 30102 ft 511 kts 265°
2026-05-04 13:08 53.48448 -10.06674 30101 ft 511 kts 265°
2026-05-04 13:08 53.47536 -10.18491 30110 ft 510 kts 265°
2026-05-04 13:09 53.46612 -10.30306 30114 ft 510 kts 265°
2026-05-04 13:09 53.45677 -10.42125 30116 ft 511 kts 265°
2026-05-04 13:10 53.44729 -10.53952 30110 ft 512 kts 265°
2026-05-04 13:10 53.43767 -10.65805 30109 ft 514 kts 265°
2026-05-04 13:11 53.42789 -10.77691 30112 ft 515 kts 264°
2026-05-04 13:11 53.41798 -10.89588 30113 ft 516 kts 264°
2026-05-04 13:12 53.40795 -11.01486 30118 ft 516 kts 264°
2026-05-04 13:12 53.39781 -11.13375 30119 ft 515 kts 264°
2026-05-04 13:13 53.38754 -11.25259 30120 ft 515 kts 264°
2026-05-04 13:13 53.37716 -11.37123 30123 ft 514 kts 264°
2026-05-04 13:14 53.36667 -11.48957 30118 ft 513 kts 264°
2026-05-04 13:14 53.35612 -11.60755 30123 ft 511 kts 264°
2026-05-04 13:15 53.34550 -11.72503 30119 ft 510 kts 264°
2026-05-04 13:15 53.33478 -11.84216 30121 ft 508 kts 263°
2026-05-04 13:16 53.32395 -11.95905 30119 ft 508 kts 263°
2026-05-04 13:16 53.31305 -12.07552 30128 ft 507 kts 263°
2026-05-04 13:17 53.30212 -12.19107 30115 ft 506 kts 263°
2026-05-04 13:17 53.29102 -12.30722 30120 ft 505 kts 263°
2026-05-04 13:18 53.27981 -12.42321 30123 ft 505 kts 263°
2026-05-04 13:18 53.26847 -12.53929 30124 ft 506 kts 263°
2026-05-04 13:19 53.25703 -12.65540 30119 ft 507 kts 263°
2026-05-04 13:19 53.24544 -12.77162 30119 ft 508 kts 263°
2026-05-04 13:20 53.23368 -12.88813 30121 ft 509 kts 262°
2026-05-04 13:20 53.22182 -13.00473 30120 ft 510 kts 262°
2026-05-04 13:21 53.20984 -13.12127 30123 ft 510 kts 262°
2026-05-04 13:21 53.19774 -13.23775 30119 ft 510 kts 262°
2026-05-04 13:22 53.18554 -13.35410 30118 ft 509 kts 262°
2026-05-04 13:22 53.17324 -13.47028 30120 ft 508 kts 262°
2026-05-04 13:23 53.16083 -13.58621 30118 ft 508 kts 262°
2026-05-04 13:23 53.14835 -13.70182 30122 ft 507 kts 262°
2026-05-04 13:24 53.13577 -13.81730 30117 ft 506 kts 262°
2026-05-04 13:24 53.12308 -13.93255 30122 ft 506 kts 262°
2026-05-04 13:25 53.10390 -14.10500 30128 ft 505 kts 261°
2026-05-04 13:25 53.09097 -14.21975 30119 ft 504 kts 261°
2026-05-04 13:26 53.07805 -14.33343 30122 ft 503 kts 261°